[[{"header":{"parameterUnit":"m.s-1","parameterCategory":2,"la1":30.2991,"la2":30.254,"lo1":-89.0895,"lo2":-89.0444,"dx":0.0017,"dy":0.0017,"nx":28,"ny":28,"refTime":"2022-11-13T15:00:00:Z","depth":"0","parameterNumber":2,"parameterNumberName":"U-component_of_CURRENTS"},"data":[0,0,0,0,0,0,0,0,0,0,0,0,0,0,0,0,0,0,0,0,0,0,0,0,0,0,0,0,0,0,0,0,0,0,0,0,0,0,0,0,0,0,0,0,0,0,0,0,0,0,0,0,0,0,0,0,0,0,0.2328,0.2329,0,0.2333,0.2332,0.2332,0.2314,0.2314,0.2313,0.2313,0.2282,0.2281,0.228,0,0,0,0,0,0,0,0,0,0,0,0,0,0.2279,0.228,0.2328,0.2329,0.2329,0.2333,0.2332,0.2332,0.2314,0.2314,0.2313,0.2313,0.2282,0.2281,0.228,0,0,0,0,0,0,0,0,0,0,0,0,0,0.2289,0.228,0.2328,0.2324,0.2324,0.2333,0.2332,0.2332,0.2314,0.2314,0.2313,0.2313,0.2282,0.2281,0.228,0.2278,0,0,0.2277,0.2277,0,0,0,0,0,0,0,0,0.2289,0.2291,0.2324,0.2324,0.2324,0.2326,0.2304,0.2313,0.2314,0.2313,0.2313,0.2313,0.2296,0.2294,0.229,0.2276,0.2275,0.2277,0.2276,0.2276,0.2275,0,0,0,0,0,0,0,0.2288,0.229,0.2325,0.2325,0.2325,0.2313,0.2314,0.2305,0.2302,0.2313,0.2313,0.232,0.2296,0.2291,0.2289,0.2274,0.2277,0.2276,0.2275,0.2275,0.2294,0.2296,0,0,0,0,0,0,0.2298,0.229,0.2325,0.2326,0.2311,0.2315,0.2316,0.2322,0.2302,0.2301,0.2321,0.232,0.2293,0.229,0.2288,0.2312,0.2276,0.2275,0.2274,0.2293,0.2295,0.2296,0,0,0,0,0,0,0.2297,0.2301,0.2325,0.2311,0.2314,0.2316,0.2324,0.2323,0.2324,0.2309,0.2306,0.2325,0.2292,0.2289,0.2294,0.231,0.2274,0.2273,0.2292,0.2294,0.2295,0.2342,0,0,0,0,0,0,0.2296,0.2301,0.2306,0.2312,0.2316,0.2339,0.2324,0.2323,0.2331,0.233,0.2312,0.2308,0.2292,0.2296,0.2293,0.2307,0.2272,0.229,0.2293,0.2295,0.2339,0.2346,0.2351,0,0,0,0,0,0.2294,0.2301,0.2306,0.2311,0.2324,0.234,0.234,0.2337,0.2332,0.2336,0.233,0.2309,0.2307,0.2296,0.2292,0.2307,0.2289,0.2292,0.2295,0.2337,0.2344,0.2351,0,0,0,0,0,0,0.2275,0.2301,0.2306,0.2319,0.2334,0.2338,0.2342,0.2344,0.2342,0.234,0.2321,0.2318,0.2328,0.2314,0.2302,0.2321,0.2296,0.2298,0.233,0.2337,0.2342,0.2347,0.2272,0,0,0,0,0,0.2278,0.2292,0.2314,0.2323,0.2334,0.234,0.2345,0.2349,0.2352,0.235,0.234,0.2334,0.2335,0.2334,0.2328,0.2337,0.2345,0.2346,0.2352,0.2357,0.2359,0.2389,0.2398,0.2305,0.2305,0.2304,0,0,0.2272,0.2289,0.2295,0.2321,0.2329,0.2347,0.2341,0.2357,0.2371,0.2347,0.2355,0.2351,0.2342,0.2353,0.2357,0.2344,0.2392,0.236,0.2364,0.2364,0.2393,0.2402,0.241,0.2306,0.2306,0.2306,0,0,0.2269,0.2285,0.2298,0.2317,0.2344,0.2353,0.2363,0.2377,0.2382,0.2394,0.2387,0.2397,0.2387,0.2392,0.2392,0.2427,0.2421,0.2426,0.2457,0.2486,0.2494,0.2501,0.2542,0.2552,0.2429,0.2429,0.2429,0,0.2261,0.2283,0.2302,0.2324,0.2338,0.2359,0.2376,0.239,0.2404,0.2413,0.2402,0.2415,0.2406,0.2433,0.2446,0.2439,0.2459,0.2429,0.2494,0.2501,0.2507,0.2547,0.2558,0.2432,0.2431,0.2431,0.2431,0,0.2273,0.2293,0.2303,0.2338,0.2354,0.2375,0.2404,0.2422,0.2429,0.2442,0.2468,0.2466,0.2472,0.2479,0.247,0.2516,0.2518,0.2497,0.2475,0.2519,0.2559,0.257,0.2435,0.2434,0.2434,0.2433,0,0,0.2245,0.2302,0.2303,0.2322,0.2366,0.2379,0.2412,0.2446,0.2468,0.2486,0.2511,0.2527,0.2531,0.2532,0.2534,0.2563,0.263,0.2553,0.2553,0.2593,0.2712,0.2705,0.2715,0.2622,0.2623,0.2624,0.2729,0,0.2248,0.2281,0.2313,0.2344,0.236,0.2398,0.2425,0.2459,0.2484,0.2515,0.2538,0.2559,0.2552,0.2559,0.2591,0.2618,0.2656,0.2604,0.2664,0.2666,0.2653,0.2726,0.26,0.2681,0.2739,0.274,0.2742,0,0.2245,0.2268,0.2293,0.2344,0.2356,0.2376,0.2421,0.2458,0.2515,0.2537,0.2574,0.2588,0.2643,0.2619,0.2705,0.2675,0.2698,0.2719,0.2723,0.2704,0.2678,0.2643,0.2697,0.263,0.2757,0.2756,0.2755,0,0.2197,0.2252,0.2268,0.2286,0.2347,0.2361,0.2396,0.2451,0.2473,0.2555,0.2571,0.2642,0.2671,0.2719,0.2768,0.274,0.2862,0.2822,0.2844,0.2844,0.2741,0.2729,0.2732,0.288,0.288,0.2879,0.2879,0,0.218,0.2197,0.2245,0.2254,0.227,0.2329,0.2348,0.2408,0.2464,0.2514,0.2575,0.2621,0.2696,0.2765,0.2799,0.2873,0.2891,0.2872,0.2876,0.2756,0.2745,0.2684,0.2653,0.2883,0.2882,0.2882,0.2881,0,0.2129,0.2165,0.2185,0.2236,0.2244,0.2256,0.2296,0.2329,0.2398,0.2466,0.2491,0.2609,0.2734,0.2807,0.2909,0.2912,0.29,0.2991,0.2859,0.2846,0.2781,0.2757,0.2688,0.2605,0.3031,0.3031,0.3032,0,0.2107,0.2111,0.2145,0.2152,0.2173,0.2188,0.2209,0.2278,0.2326,0.2467,0.2511,0.264,0.2733,0.2887,0.2944,0.3027,0.2929,0.2939,0.2854,0.2784,0.2761,0.2652,0.2578,0.2746,0.2744,0.2742,0.2741,0,0.2066,0.2078,0.2098,0.2106,0.212,0.2119,0.2165,0.2172,0.2301,0.2355,0.2479,0.2556,0.2743,0.2789,0.2909,0.2934,0.279,0.291,0.2858,0.2567,0.2426,0.2344,0.2687,0.2727,0.2728,0.2729,0.273,0.273,0.2035,0.2039,0.2067,0.2063,0.2079,0.207,0.2041,0.2113,0.2151,0.2251,0.2399,0.2487,0.262,0.2772,0.2789,0.2739,0.2725,0.2643,0.2634,0.2542,0.2408,0.2739,0.2768,0.2769,0.2771,0.2772,0.2773,0,0.2002,0.202,0.2027,0.2023,0.2006,0.2022,0.2033,0.2001,0.2025,0.2162,0.2245,0.2366,0.2422,0.2516,0.2557,0.2473,0.2332,0.2397,0.2193,0.2144,0.2459,0.2392,0.2313,0.2313,0.2313,0.2313,0.2313,0.2314,0.1993,0.1994,0.1992,0.1944,0.1935,0.1876,0.1851,0.1833,0.1884,0.1938,0.2008,0.2119,0.2299,0.2393,0.2344,0.2275,0.2085,0.1984,0.1996,0.2206,0.2226,0.2246,0.2175,0.2052,0.2051,0.1555,0.1551,0.1549]},{"header":{"parameterUnit":"m.s-1","parameterCategory":2,"la1":30.2991,"la2":30.254,"lo1":-89.0895,"lo2":-89.0444,"dx":0.0017,"dy":0.0017,"nx":28,"ny":28,"refTime":"2022-11-13T15:00:00:Z","depth":"0","parameterNumber":3,"parameterNumberName":"V-component_of_CURRENTS"},"data":[0,0,0,0,0,0,0,0,0,0,0,0,0,0,0,0,0,0,0,0,0,0,0,0,0,0,0,0,0,0,0,0,0,0,0,0,0,0,0,0,0,0,0,0,0,0,0,0,0,0,0,0,0,0,0,0,0,0,-0.0366,-0.0366,0,-0.0396,-0.0397,-0.0397,-0.0418,-0.0418,-0.0418,-0.0418,-0.0485,-0.0486,-0.0488,0,0,0,0,0,0,0,0,0,0,0,0,0,-0.0334,-0.0334,-0.0366,-0.0366,-0.0366,-0.0396,-0.0397,-0.0397,-0.0418,-0.0418,-0.0418,-0.0418,-0.0484,-0.0486,-0.0488,0,0,0,0,0,0,0,0,0,0,0,0,0,-0.0355,-0.0334,-0.0366,-0.038,-0.0381,-0.0396,-0.0397,-0.0397,-0.0418,-0.0418,-0.0418,-0.0418,-0.0484,-0.0486,-0.0489,-0.0502,0,0,-0.0496,-0.0497,0,0,0,0,0,0,0,0,-0.0354,-0.0356,-0.0377,-0.0379,-0.038,-0.0403,-0.041,-0.0434,-0.0418,-0.0405,-0.0418,-0.0418,-0.046,-0.0464,-0.0471,-0.0506,-0.0508,-0.0497,-0.0498,-0.0499,-0.05,0,0,0,0,0,0,0,-0.0352,-0.0355,-0.0379,-0.0377,-0.0379,-0.0387,-0.039,-0.0414,-0.0433,-0.0406,-0.0408,-0.0409,-0.0461,-0.0468,-0.0473,-0.0509,-0.0497,-0.0499,-0.05,-0.0501,-0.0555,-0.0555,0,0,0,0,0,0,-0.0346,-0.0354,-0.0378,-0.038,-0.0366,-0.0387,-0.0391,-0.0396,-0.0432,-0.0437,-0.0409,-0.041,-0.0464,-0.047,-0.0475,-0.0477,-0.0499,-0.0502,-0.0503,-0.0555,-0.0555,-0.0555,0,0,0,0,0,0,-0.0345,-0.0348,-0.0377,-0.0366,-0.037,-0.0388,-0.0393,-0.0397,-0.04,-0.0434,-0.044,-0.0409,-0.0464,-0.0472,-0.0496,-0.0481,-0.0503,-0.0505,-0.0555,-0.0555,-0.0555,-0.0492,0,0,0,0,0,0,-0.0344,-0.0348,-0.0347,-0.0366,-0.0371,-0.0375,-0.0393,-0.0397,-0.0401,-0.0402,-0.0435,-0.0442,-0.0465,-0.0491,-0.0498,-0.0485,-0.0507,-0.0555,-0.0555,-0.0555,-0.0495,-0.049,-0.0486,0,0,0,0,0,-0.0343,-0.0336,-0.0347,-0.0349,-0.037,-0.0375,-0.0377,-0.0391,-0.0401,-0.0396,-0.0425,-0.0441,-0.0495,-0.0494,-0.0501,-0.0488,-0.0556,-0.0555,-0.0555,-0.0496,-0.0491,-0.0486,0,0,0,0,0,0,-0.0314,-0.0338,-0.035,-0.0349,-0.0358,-0.0377,-0.0374,-0.0386,-0.0405,-0.0408,-0.0443,-0.0451,-0.0467,-0.049,-0.0488,-0.0504,-0.0526,-0.0527,-0.0479,-0.0474,-0.047,-0.0436,-0.0509,0,0,0,0,0,-0.0309,-0.0314,-0.0334,-0.0332,-0.0336,-0.0356,-0.0359,-0.0369,-0.0388,-0.0396,-0.042,-0.0448,-0.0472,-0.0482,-0.0508,-0.0518,-0.0521,-0.0515,-0.051,-0.0507,-0.0485,-0.0481,-0.0474,-0.0554,-0.0554,-0.0554,0,0,-0.0296,-0.031,-0.0312,-0.0326,-0.0337,-0.033,-0.0358,-0.0358,-0.035,-0.0401,-0.0401,-0.0437,-0.0474,-0.0484,-0.0492,-0.05,-0.0487,-0.0506,-0.0503,-0.0483,-0.048,-0.0472,-0.0465,-0.0554,-0.0554,-0.0554,0,0,-0.0263,-0.0286,-0.0275,-0.0283,-0.0295,-0.0307,-0.0304,-0.0322,-0.0329,-0.0342,-0.0374,-0.0395,-0.0436,-0.0449,-0.0465,-0.0453,-0.0468,-0.0468,-0.0414,-0.0411,-0.0404,-0.0397,-0.0391,-0.0384,-0.0462,-0.0461,-0.0461,0,-0.0242,-0.0235,-0.027,-0.026,-0.0254,-0.0292,-0.0268,-0.0283,-0.0305,-0.0299,-0.0334,-0.0373,-0.0414,-0.0408,-0.0412,-0.044,-0.0441,-0.0428,-0.0403,-0.0396,-0.0391,-0.0386,-0.038,-0.0458,-0.0459,-0.0459,-0.0459,0,-0.02,-0.0195,-0.0187,-0.0189,-0.019,-0.0176,-0.02,-0.0197,-0.0219,-0.0233,-0.024,-0.0299,-0.0315,-0.0339,-0.0378,-0.0355,-0.037,-0.0399,-0.0408,-0.0378,-0.0376,-0.0371,-0.0454,-0.0455,-0.0456,-0.0457,0,0,-0.0142,-0.0153,-0.0148,-0.0131,-0.0148,-0.0137,-0.0126,-0.0113,-0.0084,-0.0133,-0.0098,-0.0167,-0.0199,-0.0218,-0.0267,-0.0273,-0.0254,-0.0317,-0.0318,-0.0297,-0.0239,-0.0252,-0.0247,-0.0278,-0.0276,-0.0275,-0.0253,0,-0.0089,-0.005,-0.0073,-0.0026,-0.0003,-0.0029,-0.0009,-0.0008,-0.0021,-0.0001,-0.0059,-0.0066,-0.0154,-0.0163,-0.0183,-0.0232,-0.0236,-0.0256,-0.0282,-0.0283,-0.0287,-0.024,-0.0239,-0.0219,-0.0248,-0.0247,-0.0246,0,-0.0029,-0.001,0.0043,0.007,0.0079,0.0102,0.0147,0.0158,0.0162,0.0149,0.013,0.0075,0.005,-0.0033,-0.0087,-0.0096,-0.0158,-0.0203,-0.0203,-0.0227,-0.0284,-0.0256,-0.0208,-0.0336,-0.0238,-0.0239,-0.0239,0,0.0047,0.0077,0.0128,0.0135,0.0153,0.0188,0.0204,0.0217,0.0244,0.025,0.0272,0.0215,0.0201,0.0119,-0.0003,-0.0039,-0.0051,-0.0114,-0.0178,-0.018,-0.0188,-0.0192,-0.0252,-0.0137,-0.0137,-0.0137,-0.0137,0,0.0118,0.016,0.0173,0.0203,0.0277,0.0265,0.0341,0.0351,0.0379,0.0439,0.0355,0.0388,0.0237,0.0194,0.0069,-0.0023,0.0003,-0.0143,-0.0165,-0.0168,-0.0171,-0.0292,-0.0368,-0.0136,-0.0136,-0.0137,-0.0137,0,0.0189,0.0193,0.0258,0.0297,0.0313,0.037,0.0419,0.0479,0.0491,0.0574,0.0577,0.0532,0.0477,0.0333,0.0214,0.0085,-0.0084,-0.0058,-0.005,-0.0072,-0.027,-0.0342,-0.041,-0.0465,-0.0119,-0.0119,-0.0119,0,0.0231,0.0272,0.0328,0.0376,0.0398,0.0465,0.0518,0.0535,0.0601,0.067,0.0729,0.0692,0.069,0.0513,0.028,0.0092,-0.0054,-0.0045,-0.0125,-0.0255,-0.0352,-0.0415,-0.0461,-0.0113,-0.0113,-0.0113,-0.0113,0,0.032,0.0336,0.0383,0.0469,0.0538,0.0603,0.0685,0.0746,0.0795,0.0867,0.0958,0.0964,0.0798,0.0596,0.0322,0.0177,-0.0137,-0.0052,-0.0185,-0.0337,-0.0409,-0.048,-0.0158,-0.0113,-0.0113,-0.0113,-0.0113,-0.0113,0.0391,0.0438,0.0496,0.0572,0.0646,0.074,0.0801,0.0902,0.1007,0.1118,0.1122,0.115,0.0854,0.0479,0.0277,-0.0122,-0.0136,-0.0267,-0.0337,-0.0384,-0.0455,-0.0128,-0.0116,-0.0116,-0.0116,-0.0116,-0.0116,0,0.0479,0.052,0.0598,0.0682,0.0756,0.078,0.0908,0.0974,0.1109,0.1217,0.1282,0.1144,0.0796,0.0428,-0.0103,-0.0372,-0.0476,-0.0519,-0.0616,-0.0646,-0.0347,-0.0367,-0.0411,-0.0411,-0.0411,-0.0411,-0.0411,-0.041,0.0537,0.061,0.0627,0.0747,0.0807,0.0901,0.0968,0.1086,0.1175,0.1277,0.1285,0.1275,0.0995,0.0097,-0.0529,-0.0666,-0.0849,-0.0886,-0.098,-0.0798,-0.078,-0.0764,-0.0801,-0.0935,-0.0936,-0.1252,-0.1255,-0.1258]}],[{"header":{"parameterUnit":"m.s-1","parameterCategory":2,"la1":30.2991,"la2":30.254,"lo1":-89.0895,"lo2":-89.0444,"dx":0.0017,"dy":0.0017,"nx":28,"ny":28,"refTime":"2022-11-13T15:00:00:Z","depth":"2","parameterNumber":2,"parameterNumberName":"U-component_of_CURRENTS"},"data":[0,0,0,0,0,0,0,0,0,0,0,0,0,0,0,0,0,0,0,0,0,0,0,0,0,0,0,0,0,0,0,0,0,0,0,0,0,0,0,0,0,0,0,0,0,0,0,0,0,0,0,0,0,0,0,0,0,0,0.218,0.218,0,0.2186,0.2186,0.2186,0.2197,0.2198,0.2198,0.2198,0.2196,0.2195,0.2195,0,0,0,0,0,0,0,0,0,0,0,0,0,0.213,0.2131,0.218,0.218,0.218,0.2186,0.2186,0.2186,0.2197,0.2198,0.2198,0.2199,0.2196,0.2195,0.2195,0,0,0,0,0,0,0,0,0,0,0,0,0,0.2144,0.2132,0.218,0.2188,0.2189,0.2186,0.2186,0.2186,0.2197,0.2198,0.2198,0.2199,0.2196,0.2195,0.2195,0.2179,0,0,0.2193,0.2192,0,0,0,0,0,0,0,0,0.2143,0.2146,0.2186,0.2187,0.2188,0.2193,0.2167,0.2184,0.2197,0.2192,0.2198,0.2199,0.2195,0.2194,0.2192,0.2179,0.2179,0.2193,0.2192,0.2192,0.2192,0,0,0,0,0,0,0,0.2142,0.2145,0.2181,0.2187,0.2188,0.2175,0.2178,0.217,0.2189,0.2193,0.2194,0.2197,0.2195,0.2192,0.2192,0.2179,0.2193,0.2192,0.2192,0.2191,0.2235,0.2236,0,0,0,0,0,0,0.2147,0.2145,0.218,0.2181,0.2169,0.2176,0.2179,0.2189,0.2189,0.219,0.2197,0.2198,0.2193,0.2192,0.2192,0.2229,0.2192,0.2191,0.2191,0.2233,0.2235,0.2237,0,0,0,0,0,0,0.2146,0.215,0.218,0.2164,0.2167,0.2176,0.2188,0.2189,0.2197,0.2192,0.2193,0.2204,0.2194,0.2193,0.2207,0.2227,0.2191,0.2191,0.2232,0.2234,0.2236,0.2269,0,0,0,0,0,0,0.2145,0.215,0.2158,0.2164,0.2168,0.2194,0.2188,0.2189,0.2198,0.22,0.2199,0.2199,0.2194,0.2208,0.2206,0.2226,0.219,0.223,0.2233,0.2235,0.2266,0.2272,0.2277,0,0,0,0,0,0.2143,0.2157,0.2159,0.2163,0.218,0.2195,0.2196,0.2202,0.2198,0.2209,0.2213,0.2199,0.2226,0.2208,0.2206,0.2226,0.2228,0.2232,0.2235,0.2263,0.2271,0.2277,0,0,0,0,0,0,0.2137,0.2159,0.2162,0.2181,0.2193,0.2198,0.2209,0.2206,0.2215,0.2222,0.2209,0.221,0.2233,0.2227,0.2208,0.2251,0.2228,0.2231,0.2251,0.2257,0.2263,0.2274,0.219,0,0,0,0,0,0.2139,0.216,0.2173,0.2189,0.2198,0.2202,0.2207,0.2216,0.2224,0.2229,0.2227,0.2233,0.2243,0.2248,0.2256,0.2268,0.2269,0.2285,0.2291,0.2295,0.2306,0.2323,0.2331,0.2248,0.2248,0.2248,0,0,0.2139,0.2156,0.2166,0.219,0.22,0.2214,0.2207,0.223,0.2241,0.2226,0.2244,0.2251,0.2253,0.2277,0.2287,0.2273,0.2321,0.23,0.2303,0.2312,0.2327,0.2335,0.2342,0.2251,0.225,0.225,0,0,0.2146,0.2169,0.2184,0.2201,0.2226,0.2233,0.2241,0.2255,0.2266,0.2284,0.2282,0.2305,0.2309,0.2322,0.2326,0.2367,0.2351,0.237,0.2403,0.242,0.2426,0.2432,0.2445,0.2452,0.2371,0.2371,0.2371,0,0.2139,0.2166,0.2189,0.2209,0.2221,0.2242,0.2253,0.227,0.2287,0.2294,0.2301,0.2327,0.2335,0.2357,0.2386,0.238,0.2383,0.2372,0.2426,0.2432,0.2437,0.2449,0.2456,0.2373,0.2373,0.2373,0.2373,0,0.2156,0.2178,0.2194,0.2225,0.224,0.2264,0.2288,0.2316,0.233,0.2333,0.2366,0.2385,0.2399,0.2412,0.2415,0.2457,0.2446,0.2429,0.2403,0.2447,0.2457,0.2463,0.2376,0.2375,0.2375,0.2374,0,0,0.2133,0.219,0.2195,0.2209,0.2254,0.2266,0.2307,0.2332,0.2353,0.2382,0.2402,0.2442,0.2449,0.2457,0.2463,0.2492,0.2543,0.2486,0.2485,0.249,0.258,0.2547,0.2551,0.2531,0.2532,0.2533,0.2571,0,0.2134,0.2162,0.2197,0.2225,0.2237,0.2285,0.2309,0.2341,0.2374,0.2405,0.2435,0.2459,0.2463,0.2484,0.2511,0.2539,0.2563,0.2535,0.2544,0.2545,0.2504,0.2558,0.2363,0.2378,0.2577,0.2578,0.2579,0,0.2128,0.2153,0.2171,0.2217,0.2227,0.2256,0.231,0.2338,0.2393,0.2421,0.2458,0.2474,0.253,0.2529,0.2586,0.2567,0.2583,0.26,0.2601,0.2565,0.2525,0.2368,0.2382,0.259,0.2589,0.2588,0.2588,0,0.2077,0.2131,0.2142,0.2161,0.2217,0.2251,0.2288,0.2341,0.2362,0.2442,0.2466,0.2513,0.2556,0.2583,0.2633,0.2611,0.2696,0.2658,0.2637,0.2634,0.2468,0.2449,0.2695,0.2695,0.2695,0.2695,0.2695,0,0.2049,0.2066,0.213,0.214,0.2165,0.2221,0.2252,0.2311,0.2375,0.2405,0.2466,0.2508,0.2577,0.2627,0.2649,0.2676,0.2703,0.266,0.2649,0.2475,0.2457,0.2638,0.2631,0.2697,0.2696,0.2696,0.2696,0,0.1995,0.2026,0.2048,0.2117,0.2138,0.216,0.2229,0.2261,0.2332,0.2387,0.2417,0.2517,0.2597,0.2646,0.2719,0.2697,0.2727,0.2725,0.2525,0.249,0.2643,0.2637,0.2689,0.2688,0.2688,0.2687,0.2687,0,0.1973,0.1979,0.2027,0.2036,0.2078,0.2119,0.2149,0.223,0.2269,0.2389,0.2416,0.2523,0.2574,0.266,0.2676,0.2696,0.2739,0.2515,0.2439,0.2663,0.2646,0.2641,0.2637,0.2228,0.2224,0.222,0.2218,0,0.1951,0.1965,0.1992,0.2008,0.2039,0.2053,0.2117,0.2126,0.2234,0.2278,0.2364,0.2418,0.2523,0.2471,0.2524,0.2509,0.2495,0.2447,0.2732,0.227,0.2234,0.2216,0.2225,0.2188,0.2191,0.2193,0.2195,0.2196,0.1944,0.196,0.1989,0.1988,0.2014,0.201,0.1992,0.2051,0.2079,0.2123,0.224,0.2246,0.2296,0.227,0.2228,0.2209,0.2369,0.2251,0.2258,0.227,0.222,0.2186,0.2121,0.2123,0.2126,0.2128,0.2129,0,0.1932,0.1961,0.1973,0.1958,0.1939,0.1983,0.1985,0.1933,0.1927,0.1987,0.2013,0.1878,0.1858,0.1914,0.1844,0.1861,0.1817,0.1783,0.1695,0.1728,0.1757,0.1677,0.1436,0.1434,0.1431,0.1429,0,0,0.1933,0.1935,0.1929,0.1879,0.1886,0.186,0.184,0.1755,0.1742,0.167,0.1652,0.1755,0.1853,0.16,0.159,0.1497,0.1592,0.1446,0.2009,0.1939,0.1964,0.2046,0.1964,0,0,0,0,0]},{"header":{"parameterUnit":"m.s-1","parameterCategory":2,"la1":30.2991,"la2":30.254,"lo1":-89.0895,"lo2":-89.0444,"dx":0.0017,"dy":0.0017,"nx":28,"ny":28,"refTime":"2022-11-13T15:00:00:Z","depth":"2","parameterNumber":3,"parameterNumberName":"V-component_of_CURRENTS"},"data":[0,0,0,0,0,0,0,0,0,0,0,0,0,0,0,0,0,0,0,0,0,0,0,0,0,0,0,0,0,0,0,0,0,0,0,0,0,0,0,0,0,0,0,0,0,0,0,0,0,0,0,0,0,0,0,0,0,0,-0.0026,-0.0027,0,-0.0052,-0.0052,-0.0053,-0.0098,-0.0099,-0.01,-0.0101,-0.017,-0.0171,-0.0172,0,0,0,0,0,0,0,0,0,0,0,0,0,-0.0006,-0.0006,-0.0026,-0.0027,-0.0027,-0.0052,-0.0052,-0.0053,-0.0098,-0.0099,-0.0101,-0.0102,-0.017,-0.0171,-0.0172,0,0,0,0,0,0,0,0,0,0,0,0,0,-0.002,-0.0006,-0.0026,-0.0054,-0.0057,-0.0052,-0.0052,-0.0053,-0.0098,-0.0099,-0.0101,-0.0102,-0.017,-0.0171,-0.0172,-0.0151,0,0,-0.0177,-0.0177,0,0,0,0,0,0,0,0,-0.0019,-0.0021,-0.0049,-0.0052,-0.0055,-0.0075,-0.007,-0.0088,-0.0098,-0.0081,-0.0101,-0.0103,-0.0142,-0.0146,-0.0145,-0.0155,-0.0158,-0.0177,-0.0178,-0.0178,-0.0179,0,0,0,0,0,0,0,-0.0018,-0.002,-0.0035,-0.005,-0.0053,-0.0061,-0.0065,-0.0074,-0.0103,-0.0083,-0.0086,-0.0091,-0.0144,-0.0143,-0.0147,-0.0159,-0.0177,-0.0178,-0.0179,-0.0179,-0.022,-0.022,0,0,0,0,0,0,-0.0016,-0.0019,-0.0035,-0.0036,-0.0042,-0.0061,-0.0065,-0.0066,-0.0102,-0.0109,-0.0089,-0.0093,-0.014,-0.0145,-0.015,-0.0161,-0.0178,-0.0179,-0.018,-0.022,-0.022,-0.022,0,0,0,0,0,0,-0.0016,-0.0017,-0.0034,-0.0029,-0.0032,-0.006,-0.0061,-0.0066,-0.0074,-0.0107,-0.0115,-0.0094,-0.0142,-0.0148,-0.017,-0.0163,-0.018,-0.0181,-0.0219,-0.022,-0.022,-0.0161,0,0,0,0,0,0,-0.0015,-0.0017,-0.0017,-0.0029,-0.0032,-0.0034,-0.0059,-0.0065,-0.0074,-0.0079,-0.0112,-0.012,-0.0143,-0.0168,-0.0171,-0.0165,-0.0182,-0.0219,-0.0219,-0.022,-0.0163,-0.016,-0.0157,0,0,0,0,0,-0.0014,-0.0005,-0.0017,-0.0019,-0.0032,-0.0034,-0.0036,-0.006,-0.0073,-0.0073,-0.0102,-0.0119,-0.0174,-0.0168,-0.0173,-0.0167,-0.0219,-0.0219,-0.022,-0.0164,-0.016,-0.0157,0,0,0,0,0,0,0.0004,-0.0009,-0.0023,-0.0019,-0.0029,-0.0043,-0.0042,-0.0056,-0.0075,-0.0084,-0.0115,-0.0124,-0.0143,-0.0164,-0.0158,-0.0183,-0.0201,-0.0203,-0.0158,-0.0154,-0.0151,-0.0137,-0.0184,0,0,0,0,0,0.0009,0.0008,-0.0005,-0.0005,-0.0006,-0.0023,-0.0027,-0.0043,-0.0061,-0.0071,-0.0096,-0.0125,-0.0145,-0.0158,-0.018,-0.0185,-0.0202,-0.0189,-0.0186,-0.0183,-0.0176,-0.0194,-0.0191,-0.0222,-0.0222,-0.0222,0,0,0.0016,0.0007,0.0007,-0.0001,-0.0009,-0.0003,-0.0029,-0.0034,-0.003,-0.0074,-0.0081,-0.0113,-0.0145,-0.0158,-0.0168,-0.0176,-0.0184,-0.0184,-0.018,-0.0175,-0.0194,-0.019,-0.0188,-0.0222,-0.0222,-0.0222,0,0,0.0037,0.0024,0.0035,0.003,0.0017,0.0009,0.0008,-0.0007,-0.0016,-0.0029,-0.006,-0.0089,-0.0119,-0.0138,-0.0152,-0.0144,-0.0167,-0.0156,-0.0124,-0.0141,-0.0138,-0.0136,-0.0152,-0.0152,-0.0153,-0.0153,-0.0153,0,0.0048,0.0056,0.0037,0.0047,0.005,0.0017,0.0035,0.0027,0.0002,0.0002,-0.0031,-0.0074,-0.0108,-0.011,-0.0118,-0.0135,-0.0148,-0.0131,-0.0134,-0.0133,-0.0131,-0.0149,-0.0149,-0.015,-0.0151,-0.0151,-0.0151,0,0.0079,0.0084,0.0092,0.0093,0.0094,0.01,0.0088,0.0082,0.006,0.0045,0.0027,-0.0022,-0.0048,-0.0067,-0.0093,-0.0094,-0.0108,-0.0126,-0.0137,-0.0124,-0.0144,-0.0145,-0.0146,-0.0147,-0.0148,-0.0149,0,0,0.0112,0.0115,0.0117,0.0128,0.0119,0.0127,0.0135,0.014,0.015,0.0106,0.0116,0.0063,0.0029,0.0011,-0.0024,-0.0047,-0.0058,-0.008,-0.0083,-0.0084,-0.0093,-0.0114,-0.0118,-0.0073,-0.0073,-0.0073,-0.011,0,0.0145,0.0177,0.0168,0.0198,0.0217,0.0197,0.0212,0.0206,0.0187,0.0184,0.0135,0.012,0.0065,0.0048,0.0019,-0.0037,-0.0059,-0.0046,-0.0116,-0.0118,-0.0129,-0.0119,-0.009,-0.0122,-0.0111,-0.0111,-0.0111,0,0.0185,0.0199,0.024,0.0259,0.0267,0.028,0.0299,0.0307,0.0293,0.0276,0.0248,0.0205,0.0168,0.0113,0.0034,0.0047,-0.0018,-0.0067,-0.007,-0.011,-0.0142,-0.0135,-0.0125,-0.0114,-0.0114,-0.0114,-0.0113,0,0.0226,0.0252,0.0288,0.0294,0.0309,0.0329,0.0338,0.0337,0.0357,0.0337,0.0337,0.0283,0.026,0.0174,0.0062,0.005,-0.0026,-0.0056,-0.0133,-0.0135,-0.0135,-0.0137,-0.011,-0.011,-0.0109,-0.0109,-0.0109,0,0.0268,0.0294,0.0312,0.0331,0.0377,0.0375,0.0418,0.0417,0.0429,0.0462,0.0391,0.0399,0.0274,0.0211,0.0097,-0.0016,0.0001,-0.0123,-0.0144,-0.0115,-0.0115,-0.013,-0.0132,-0.0111,-0.011,-0.011,-0.011,0,0.0302,0.0314,0.0356,0.0385,0.0399,0.0432,0.0474,0.0507,0.0506,0.0548,0.0546,0.0496,0.0411,0.0279,0.0145,0.004,-0.0077,-0.0123,-0.0081,-0.0098,-0.0185,-0.0183,-0.0211,-0.0212,-0.0213,-0.0214,-0.0214,0,0.0324,0.0351,0.0396,0.0429,0.0444,0.0489,0.0527,0.0545,0.0585,0.0611,0.064,0.0577,0.0535,0.0328,0.0139,-0.005,-0.0078,-0.0149,-0.0177,-0.0176,-0.0194,-0.0192,-0.0189,-0.0153,-0.0153,-0.0153,-0.0153,0,0.0362,0.0378,0.041,0.0475,0.0524,0.0578,0.0635,0.0675,0.0709,0.0745,0.0776,0.0744,0.0557,0.0371,0.0117,-0.0006,-0.012,-0.0157,-0.0155,-0.0135,-0.0125,-0.0142,-0.014,-0.0153,-0.0153,-0.0153,-0.0153,-0.0153,0.0388,0.042,0.0467,0.0524,0.0589,0.0663,0.0708,0.077,0.084,0.0882,0.0862,0.082,0.0619,0.0289,0.0079,-0.013,-0.0129,-0.0207,-0.0205,-0.0203,-0.0193,-0.0186,-0.0224,-0.0224,-0.0224,-0.0225,-0.0225,0,0.0415,0.0455,0.0514,0.0581,0.0647,0.069,0.078,0.0816,0.0897,0.0934,0.0939,0.0749,0.055,0.0326,0.0012,-0.0188,-0.0191,-0.0241,-0.0203,-0.0201,-0.0199,-0.0188,-0.0218,-0.0219,-0.0219,-0.022,0,0,0.0434,0.0483,0.0508,0.061,0.0677,0.0781,0.084,0.0885,0.0923,0.0935,0.0923,0.0863,0.0613,0.0382,0.0124,-0.0049,-0.0079,-0.0077,-0.006,0.0018,0.0022,-0.0155,-0.0133,0,0,0,0,0]}],[{"header":{"parameterUnit":"m.s-1","parameterCategory":2,"la1":30.2991,"la2":30.254,"lo1":-89.0895,"lo2":-89.0444,"dx":0.0017,"dy":0.0017,"nx":28,"ny":28,"refTime":"2022-11-13T15:00:00:Z","depth":"4","parameterNumber":2,"parameterNumberName":"U-component_of_CURRENTS"},"data":[0,0,0,0,0,0,0,0,0,0,0,0,0,0,0,0,0,0,0,0,0,0,0,0,0,0,0,0,0,0,0,0,0,0,0,0,0,0,0,0,0,0,0,0,0,0,0,0,0,0,0,0,0,0,0,0,0,0,0.1182,0.1183,0,0.125,0.1251,0.1251,0.131,0.1311,0.1312,0.1313,0.1382,0.1383,0.1384,0,0,0,0,0,0,0,0,0,0,0,0,0,0.1116,0.1116,0.1182,0.1183,0.1184,0.125,0.1251,0.1251,0.131,0.1311,0.1312,0.1313,0.1382,0.1383,0.1384,0,0,0,0,0,0,0,0,0,0,0,0,0,0.1157,0.1116,0.1182,0.1224,0.1228,0.125,0.1251,0.1251,0.131,0.1311,0.1312,0.1314,0.1382,0.1383,0.1384,0.1365,0,0,0.1389,0.1389,0,0,0,0,0,0,0,0,0.1155,0.1159,0.1216,0.1221,0.1226,0.1276,0.1253,0.1291,0.1309,0.1276,0.1313,0.1314,0.1348,0.1352,0.1357,0.1369,0.1372,0.1389,0.139,0.139,0.1391,0,0,0,0,0,0,0,0.1152,0.1157,0.1206,0.1218,0.1224,0.1243,0.125,0.126,0.1301,0.1279,0.1284,0.1296,0.135,0.1356,0.1359,0.1373,0.1389,0.139,0.1391,0.1392,0.1482,0.1484,0,0,0,0,0,0,0.1147,0.1154,0.1204,0.1208,0.1196,0.1244,0.1251,0.1256,0.1301,0.131,0.1294,0.1298,0.1353,0.1358,0.1362,0.1436,0.139,0.1392,0.1393,0.1481,0.1483,0.1484,0,0,0,0,0,0,0.1145,0.115,0.1201,0.1185,0.1194,0.1243,0.1248,0.1257,0.1295,0.1313,0.1322,0.1328,0.1354,0.136,0.1407,0.1436,0.1393,0.1394,0.1479,0.1481,0.1483,0.1523,0,0,0,0,0,0,0.1143,0.1149,0.1163,0.1185,0.1195,0.1237,0.1247,0.1257,0.1299,0.1305,0.1344,0.135,0.1355,0.1405,0.1408,0.1437,0.1395,0.1477,0.148,0.1483,0.152,0.1527,0.1532,0,0,0,0,0,0.114,0.115,0.1163,0.1171,0.1208,0.1238,0.1245,0.1283,0.13,0.1321,0.1353,0.135,0.1426,0.1407,0.1411,0.1441,0.1476,0.1479,0.1482,0.1517,0.1525,0.1532,0,0,0,0,0,0,0.1129,0.1158,0.1173,0.1192,0.1225,0.125,0.1276,0.1297,0.1337,0.1354,0.1366,0.1375,0.1427,0.1428,0.1408,0.1477,0.1451,0.1455,0.1476,0.1484,0.149,0.1492,0.1396,0,0,0,0,0,0.1131,0.1149,0.1179,0.1199,0.1217,0.125,0.1272,0.13,0.1332,0.1353,0.1379,0.141,0.1437,0.1458,0.148,0.1513,0.1514,0.1537,0.1543,0.1548,0.1554,0.1583,0.1592,0.1496,0.1495,0.1495,0,0,0.1133,0.1152,0.1164,0.1199,0.1226,0.1255,0.1267,0.1312,0.1344,0.1352,0.141,0.1433,0.1452,0.1496,0.1519,0.1505,0.1576,0.1552,0.1556,0.1559,0.1587,0.1596,0.1604,0.1498,0.1497,0.1497,0,0,0.1141,0.1163,0.1183,0.121,0.126,0.128,0.1298,0.1343,0.1376,0.1426,0.1444,0.149,0.1527,0.1551,0.1564,0.1616,0.1608,0.1626,0.1658,0.1687,0.1694,0.1701,0.1711,0.1719,0.1628,0.1628,0.1628,0,0.1149,0.1171,0.1196,0.1222,0.1251,0.1292,0.1325,0.1357,0.1415,0.1445,0.1456,0.1533,0.1552,0.1602,0.1627,0.163,0.1638,0.1626,0.1694,0.1701,0.1707,0.1715,0.1723,0.1631,0.163,0.163,0.163,0,0.1162,0.1195,0.1211,0.1256,0.1288,0.1326,0.1371,0.1416,0.1459,0.1491,0.1562,0.1593,0.164,0.1654,0.1659,0.1718,0.1706,0.1697,0.1671,0.1719,0.1725,0.1732,0.1634,0.1633,0.1632,0.1632,0,0,0.1144,0.1209,0.1219,0.1249,0.1313,0.1338,0.1398,0.1459,0.1504,0.1562,0.1616,0.1675,0.1701,0.1719,0.1734,0.1761,0.1815,0.1754,0.1755,0.1757,0.187,0.1757,0.1754,0.1819,0.1821,0.1822,0.1854,0,0.1155,0.1204,0.1238,0.1296,0.1327,0.1383,0.1431,0.1493,0.155,0.161,0.1658,0.1717,0.1721,0.1757,0.1786,0.1813,0.1837,0.1807,0.183,0.183,0.1718,0.176,0.1827,0.186,0.1861,0.1862,0.1863,0,0.1156,0.1191,0.1247,0.1321,0.1341,0.1386,0.1473,0.1523,0.1611,0.1657,0.1723,0.176,0.1828,0.1817,0.1884,0.1866,0.1877,0.1885,0.1886,0.1772,0.1731,0.1804,0.1876,0.1875,0.1874,0.1873,0.1872,0,0.1121,0.1197,0.1243,0.1267,0.1353,0.1402,0.1458,0.1547,0.1594,0.1698,0.1739,0.1816,0.1862,0.1898,0.1926,0.1917,0.1977,0.1962,0.1866,0.1858,0.1931,0.1923,0.2002,0.2002,0.2002,0.2002,0.2002,0,0.1105,0.1146,0.1236,0.1259,0.1321,0.1394,0.1468,0.1537,0.1629,0.1681,0.1766,0.1809,0.1888,0.1927,0.1944,0.1924,0.1995,0.1877,0.1862,0.1946,0.194,0.1935,0.1927,0.2003,0.2003,0.2003,0.2003,0,0.1059,0.1118,0.1175,0.1274,0.1307,0.1357,0.1466,0.151,0.1612,0.1683,0.172,0.1821,0.1878,0.1925,0.1981,0.1931,0.1933,0.1906,0.1991,0.198,0.179,0.1784,0.1802,0.1798,0.1795,0.1793,0.179,0,0.1036,0.1058,0.1167,0.1201,0.1255,0.1334,0.138,0.1493,0.1538,0.1675,0.1695,0.1789,0.1843,0.182,0.1888,0.1898,0.1879,0.1858,0.1825,0.1787,0.1772,0.177,0.1768,0.1785,0.1785,0.1784,0.1783,0,0.0979,0.103,0.1072,0.1149,0.1209,0.1259,0.1343,0.136,0.1484,0.1585,0.1632,0.1666,0.1716,0.1754,0.1767,0.1776,0.1861,0.1825,0.1831,0.1801,0.1767,0.1755,0.1757,0.1772,0.1774,0.1775,0.1775,0,0.0934,0.0951,0.1015,0.1074,0.114,0.1168,0.1222,0.1276,0.133,0.1482,0.1497,0.1601,0.17,0.1691,0.1712,0.1704,0.1683,0.1624,0.1641,0.1653,0.159,0.1525,0.1447,0,0,0,0,0,0.0877,0.0888,0.0933,0.0988,0.1051,0.1095,0.1182,0.1238,0.1353,0.1348,0.142,0.1467,0.1505,0.1562,0.1525,0.1648,0.1686,0.1597,0.1625,0.1713,0.1725,0.1665,0,0,0,0,0,0,0.0841,0.0873,0.0898,0.0898,0.0925,0.0979,0.1032,0.1114,0.1121,0.1249,0.1277,0.1379,0.1436,0.1509,0.1497,0.1513,0.15,0.1669,0.1665,0.1706,0.1717,0.1727,0.1669,0,0,0,0,0]},{"header":{"parameterUnit":"m.s-1","parameterCategory":2,"la1":30.2991,"la2":30.254,"lo1":-89.0895,"lo2":-89.0444,"dx":0.0017,"dy":0.0017,"nx":28,"ny":28,"refTime":"2022-11-13T15:00:00:Z","depth":"4","parameterNumber":3,"parameterNumberName":"V-component_of_CURRENTS"},"data":[0,0,0,0,0,0,0,0,0,0,0,0,0,0,0,0,0,0,0,0,0,0,0,0,0,0,0,0,0,0,0,0,0,0,0,0,0,0,0,0,0,0,0,0,0,0,0,0,0,0,0,0,0,0,0,0,0,0,0.0192,0.0192,0,0.0169,0.0169,0.0168,0.0148,0.0147,0.0147,0.0147,0.0113,0.0112,0.0112,0,0,0,0,0,0,0,0,0,0,0,0,0,0.0185,0.0185,0.0192,0.0192,0.0191,0.0169,0.0169,0.0168,0.0148,0.0147,0.0147,0.0147,0.0113,0.0112,0.0112,0,0,0,0,0,0,0,0,0,0,0,0,0,0.0178,0.0185,0.0192,0.0178,0.0177,0.0169,0.0169,0.0168,0.0148,0.0147,0.0147,0.0147,0.0113,0.0112,0.0111,0.0114,0,0,0.0108,0.0108,0,0,0,0,0,0,0,0,0.0178,0.0178,0.018,0.0179,0.0177,0.016,0.0154,0.0149,0.0148,0.0159,0.0147,0.0146,0.0128,0.0126,0.0123,0.0112,0.0111,0.0108,0.0108,0.0107,0.0107,0,0,0,0,0,0,0,0.0179,0.0179,0.0183,0.018,0.0178,0.0161,0.016,0.0153,0.0146,0.0158,0.0156,0.0153,0.0127,0.0124,0.0122,0.011,0.0108,0.0108,0.0107,0.0107,0.0091,0.0091,0,0,0,0,0,0,0.0183,0.018,0.0184,0.0182,0.0176,0.0162,0.0161,0.0167,0.0146,0.0143,0.0154,0.0153,0.0126,0.0123,0.0121,0.0119,0.0107,0.0106,0.0106,0.0091,0.0091,0.0092,0,0,0,0,0,0,0.0183,0.0184,0.0185,0.0179,0.0178,0.0163,0.0169,0.0166,0.0163,0.0143,0.0139,0.0153,0.0125,0.0122,0.0114,0.0118,0.0106,0.0105,0.0091,0.0091,0.0091,0.0118,0,0,0,0,0,0,0.0184,0.0185,0.0188,0.018,0.0179,0.0184,0.0169,0.0166,0.0161,0.0159,0.0141,0.0138,0.0125,0.0116,0.0114,0.0116,0.0104,0.0091,0.0091,0.0091,0.0117,0.0119,0.0121,0,0,0,0,0,0.0183,0.0195,0.0189,0.0189,0.0185,0.0184,0.0182,0.0169,0.0162,0.0164,0.015,0.0138,0.0116,0.0116,0.0112,0.0115,0.0091,0.0091,0.0091,0.0116,0.0119,0.0121,0,0,0,0,0,0,0.0194,0.0194,0.0187,0.0198,0.0191,0.0181,0.0182,0.0172,0.0163,0.0161,0.0142,0.0138,0.0132,0.0121,0.0121,0.0111,0.0101,0.0101,0.0121,0.0123,0.0125,0.0122,0.0104,0,0,0,0,0,0.0198,0.0207,0.02,0.0208,0.0207,0.0194,0.0191,0.0183,0.0174,0.017,0.0157,0.0143,0.0131,0.0126,0.0115,0.0112,0.0086,0.0111,0.0113,0.0115,0.011,0.0071,0.0069,0.0093,0.0093,0.0093,0,0,0.0205,0.0205,0.021,0.021,0.0205,0.0206,0.0192,0.0192,0.0191,0.0168,0.0165,0.015,0.0132,0.0127,0.0124,0.0118,0.0095,0.0115,0.0117,0.0111,0.0071,0.0069,0.0067,0.0093,0.0093,0.0093,0,0,0.0219,0.0223,0.0231,0.023,0.0223,0.0217,0.0218,0.021,0.0205,0.02,0.0182,0.0167,0.0156,0.0139,0.013,0.0137,0.0108,0.0138,0.0145,0.0108,0.0105,0.0103,0.0071,0.0065,0.0138,0.0139,0.0139,0,0.0222,0.0233,0.0232,0.0237,0.0237,0.0224,0.0228,0.0225,0.0213,0.0207,0.0203,0.0171,0.0159,0.0141,0.0145,0.0141,0.0116,0.0138,0.011,0.0107,0.0103,0.0071,0.0064,0.014,0.014,0.014,0.0139,0,0.0238,0.0245,0.0252,0.0254,0.0255,0.026,0.0254,0.0253,0.0244,0.0231,0.0214,0.0194,0.0172,0.0169,0.016,0.0136,0.0124,0.0117,0.0103,0.0103,0.0069,0.0061,0.0142,0.0141,0.0141,0.0141,0,0,0.0247,0.026,0.0262,0.0264,0.0265,0.0268,0.0272,0.0265,0.0259,0.0245,0.0231,0.0211,0.0192,0.018,0.0165,0.0135,0.0098,0.0121,0.0118,0.0088,0.0015,0.0016,0.0008,0.0084,0.0083,0.0082,0.0002,0,0.0255,0.027,0.0275,0.0286,0.0291,0.0288,0.0291,0.0283,0.0272,0.0258,0.0229,0.0213,0.02,0.019,0.0158,0.0115,0.0079,0.012,0.0021,0.0018,0.0017,-0.0001,0.0078,-0.0004,-0.0006,-0.0007,-0.0008,0,0.0264,0.0273,0.0289,0.0298,0.03,0.0308,0.0306,0.0308,0.0286,0.0277,0.025,0.0226,0.0188,0.0177,0.009,0.0117,0.0067,0.0029,0.0025,0.001,0.0004,-0.0005,-0.0022,-0.002,-0.0019,-0.0018,-0.0018,0,0.0264,0.0281,0.0295,0.03,0.0309,0.0317,0.0322,0.0311,0.0315,0.0288,0.0282,0.0227,0.0206,0.0134,0.0065,0.0072,-0.0036,-0.0037,-0.0089,-0.0089,-0.0077,-0.0074,-0.0112,-0.0112,-0.0112,-0.0112,-0.0111,0,0.0266,0.0275,0.03,0.0307,0.0322,0.0327,0.0337,0.0334,0.0331,0.0333,0.0293,0.028,0.0194,0.0128,0.0058,-0.0037,-0.0047,-0.0097,-0.0114,-0.0063,-0.0057,-0.0083,-0.0078,-0.0115,-0.0114,-0.0113,-0.0113,0,0.0254,0.0273,0.0289,0.0312,0.0323,0.0333,0.036,0.0366,0.0362,0.0366,0.0362,0.0313,0.023,0.0135,0.0017,-0.0039,-0.0133,-0.0167,-0.0106,-0.0117,-0.016,-0.0154,-0.0236,-0.0237,-0.0237,-0.0238,-0.0238,0,0.0247,0.0256,0.0293,0.031,0.0323,0.0346,0.0364,0.0379,0.0393,0.0389,0.0392,0.0322,0.0277,0.0111,0.0008,-0.0143,-0.0159,-0.0212,-0.0188,-0.0167,-0.0175,-0.0167,-0.016,-0.0239,-0.0239,-0.024,-0.024,0,0.0226,0.0244,0.0258,0.0301,0.0331,0.0361,0.0394,0.0409,0.043,0.043,0.0415,0.0337,0.0241,0.0117,-0.0004,-0.0109,-0.0179,-0.0219,-0.0218,-0.0196,-0.0172,-0.0178,-0.017,-0.0242,-0.0242,-0.0241,-0.0241,0,0.0206,0.0215,0.0245,0.0284,0.0324,0.0369,0.0387,0.0414,0.0431,0.0441,0.0435,0.0342,0.0292,0.0134,0.0025,-0.0082,-0.0105,-0.0134,-0.0138,-0.0137,-0.0081,-0.0034,-0.0085,0,0,0,0,0,0.0184,0.0199,0.0229,0.0274,0.0319,0.0353,0.0403,0.0423,0.0452,0.0449,0.0447,0.0364,0.0215,0.0148,0.0041,-0.0001,-0.0138,-0.0132,-0.0176,-0.0254,-0.0251,-0.0202,0,0,0,0,0,0,0.0166,0.0187,0.0216,0.0264,0.0301,0.0354,0.0394,0.0418,0.0418,0.0434,0.0355,0.0335,0.0183,0.0274,0.0038,0.0006,-0.0037,-0.0199,-0.0201,-0.0255,-0.0253,-0.0251,-0.02,0,0,0,0,0]}]]